Time,TemperatureF,DewpointF,PressureIn,WindDirection,WindDirectionDegrees,WindSpeedMPH,WindSpeedGustMPH,Humidity,HourlyPrecipIn,Conditions,Clouds,dailyrainin,SoftwareType,DateUTC
2013-10-15 00:06:00,32.0,30.0,30.45,North,360,0.0,-999.0,93,-99.99,,,0.17,weatherlink.com 1.10,2013-10-15 06:06:00,
2013-10-15 00:21:00,32.0,30.0,30.45,North,360,0.0,-999.0,93,-99.99,,,0.17,weatherlink.com 1.10,2013-10-15 06:21:00,
2013-10-15 00:36:00,32.0,30.0,30.45,North,360,0.0,-999.0,93,-99.99,,,0.17,weatherlink.com 1.10,2013-10-15 06:36:00,
2013-10-15 00:51:00,32.0,30.0,30.45,North,360,0.0,-999.0,93,-99.99,,,0.17,weatherlink.com 1.10,2013-10-15 06:51:00,
2013-10-15 01:06:00,31.9,30.0,30.45,North,360,0.0,-999.0,93,-99.99,,,0.17,weatherlink.com 1.10,2013-10-15 07:06:00,
2013-10-15 01:21:00,31.8,30.0,30.45,North,360,0.0,-999.0,93,-99.99,,,0.17,weatherlink.com 1.10,2013-10-15 07:21:00,
2013-10-15 01:36:00,31.8,30.0,30.45,North,360,0.0,-999.0,93,-99.99,,,0.17,weatherlink.com 1.10,2013-10-15 07:36:00,
2013-10-15 01:51:00,31.7,30.0,30.46,North,360,0.0,-999.0,93,-99.99,,,0.17,weatherlink.com 1.10,2013-10-15 07:51:00,
2013-10-15 02:06:00,31.5,30.0,30.46,North,360,0.0,-999.0,93,-99.99,,,0.17,weatherlink.com 1.10,2013-10-15 08:06:00,
2013-10-15 02:21:00,31.3,30.0,30.45,ENE,69,2.0,-999.0,93,-99.99,,,0.17,weatherlink.com 1.10,2013-10-15 08:21:00,
2013-10-15 02:36:00,30.7,29.0,30.46,ENE,64,2.0,-999.0,93,-99.99,,,0.17,weatherlink.com 1.10,2013-10-15 08:36:00,
2013-10-15 02:51:00,30.8,29.0,30.45,ENE,65,0.0,-999.0,93,-99.99,,,0.17,weatherlink.com 1.10,2013-10-15 08:51:00,
2013-10-15 03:06:00,30.9,29.0,30.45,SE,142,0.0,-999.0,93,-99.99,,,0.17,weatherlink.com 1.10,2013-10-15 09:06:00,
2013-10-15 03:21:00,30.9,29.0,30.45,SE,144,0.0,-999.0,93,-99.99,,,0.17,weatherlink.com 1.10,2013-10-15 09:21:00,
2013-10-15 03:36:00,30.9,29.0,30.44,SE,144,0.0,-999.0,93,-99.99,,,0.17,weatherlink.com 1.10,2013-10-15 09:36:00,
2013-10-15 03:51:00,31.0,29.0,30.44,SE,146,0.0,-999.0,93,-99.99,,,0.17,weatherlink.com 1.10,2013-10-15 09:51:00,
2013-10-15 04:06:00,31.0,29.0,30.44,SE,146,0.0,-999.0,93,-99.99,,,0.17,weatherlink.com 1.10,2013-10-15 10:06:00,
2013-10-15 04:21:00,31.0,29.0,30.44,SE,146,0.0,-999.0,93,-99.99,,,0.17,weatherlink.com 1.10,2013-10-15 10:21:00,
2013-10-15 04:36:00,31.0,29.0,30.43,SE,146,0.0,-999.0,93,-99.99,,,0.17,weatherlink.com 1.10,2013-10-15 10:36:00,
2013-10-15 04:51:00,31.0,29.0,30.43,SE,146,0.0,-999.0,93,-99.99,,,0.17,weatherlink.com 1.10,2013-10-15 10:51:00,
2013-10-15 05:06:00,31.0,29.0,30.43,SE,146,0.0,-999.0,93,-99.99,,,0.17,weatherlink.com 1.10,2013-10-15 11:06:00,
2013-10-15 05:21:00,31.0,29.0,30.43,SE,146,0.0,-999.0,93,-99.99,,,0.17,weatherlink.com 1.10,2013-10-15 11:21:00,
2013-10-15 05:36:00,31.0,29.0,30.43,SE,146,0.0,-999.0,93,-99.99,,,0.17,weatherlink.com 1.10,2013-10-15 11:36:00,
2013-10-15 05:51:00,30.9,29.0,30.43,North,360,0.0,-999.0,93,-99.99,,,0.17,weatherlink.com 1.10,2013-10-15 11:51:00,
2013-10-15 06:06:00,30.8,29.0,30.43,North,360,0.0,-999.0,93,-99.99,,,0.17,weatherlink.com 1.10,2013-10-15 12:06:00,
2013-10-15 06:21:00,30.6,29.0,30.44,North,360,0.0,-999.0,93,-99.99,,,0.17,weatherlink.com 1.10,2013-10-15 12:21:00,
2013-10-15 06:36:00,30.5,29.0,30.45,North,360,0.0,-999.0,93,-99.99,,,0.17,weatherlink.com 1.10,2013-10-15 12:36:00,
2013-10-15 06:51:00,30.5,29.0,30.45,North,360,0.0,-999.0,93,-99.99,,,0.17,weatherlink.com 1.10,2013-10-15 12:51:00,
2013-10-15 07:06:00,30.4,29.0,30.45,North,360,0.0,-999.0,93,-99.99,,,0.17,weatherlink.com 1.10,2013-10-15 13:06:00,
2013-10-15 07:21:00,30.4,29.0,30.45,North,360,0.0,-999.0,93,-99.99,,,0.17,weatherlink.com 1.10,2013-10-15 13:21:00,
2013-10-15 07:36:00,30.4,29.0,30.45,North,360,0.0,-999.0,93,-99.99,,,0.17,weatherlink.com 1.10,2013-10-15 13:36:00,
2013-10-15 07:51:00,30.4,29.0,30.46,North,360,0.0,-999.0,93,-99.99,,,0.17,weatherlink.com 1.10,2013-10-15 13:51:00,
2013-10-15 08:06:00,30.5,29.0,30.46,North,360,0.0,-999.0,93,-99.99,,,0.17,weatherlink.com 1.10,2013-10-15 14:06:00,
2013-10-15 08:21:00,30.5,29.0,30.47,North,360,0.0,-999.0,93,-99.99,,,0.17,weatherlink.com 1.10,2013-10-15 14:21:00,
2013-10-15 08:36:00,30.4,29.0,30.48,North,360,3.0,-999.0,93,-99.99,,,0.17,weatherlink.com 1.10,2013-10-15 14:36:00,
2013-10-15 08:51:00,30.1,28.0,30.48,North,360,1.0,-999.0,93,-99.99,,,0.17,weatherlink.com 1.10,2013-10-15 14:51:00,
2013-10-15 09:06:00,30.0,28.0,30.48,North,360,0.0,-999.0,93,-99.99,,,0.17,weatherlink.com 1.10,2013-10-15 15:06:00,
2013-10-15 09:21:00,29.9,28.0,30.48,North,360,0.0,-999.0,93,-99.99,,,0.17,weatherlink.com 1.10,2013-10-15 15:21:00,
2013-10-15 09:36:00,30.2,29.0,30.48,North,360,0.0,-999.0,94,-99.99,,,0.17,weatherlink.com 1.10,2013-10-15 15:36:00,
2013-10-15 09:51:00,30.3,29.0,30.48,North,360,0.0,-999.0,94,-99.99,,,0.17,weatherlink.com 1.10,2013-10-15 15:51:00,
2013-10-15 10:06:00,30.4,29.0,30.48,North,360,0.0,-999.0,94,-99.99,,,0.17,weatherlink.com 1.10,2013-10-15 16:06:00,
2013-10-15 10:21:00,30.3,29.0,30.48,North,360,0.0,-999.0,94,-99.99,,,0.17,weatherlink.com 1.10,2013-10-15 16:21:00,
2013-10-15 10:36:00,30.3,29.0,30.48,North,360,0.0,-999.0,94,-99.99,,,0.17,weatherlink.com 1.10,2013-10-15 16:36:00,
2013-10-15 10:51:00,30.5,29.0,30.48,North,360,0.0,-999.0,94,-99.99,,,0.00,weatherlink.com 1.10,2013-10-15 16:51:00,
2013-10-15 11:06:00,30.6,29.0,30.48,North,360,0.0,-999.0,94,-99.99,,,0.01,weatherlink.com 1.10,2013-10-15 17:06:00,
2013-10-15 11:21:00,30.8,29.0,30.48,North,360,1.0,-999.0,94,-99.99,,,0.01,weatherlink.com 1.10,2013-10-15 17:21:00,
2013-10-15 11:36:00,30.7,29.0,30.47,North,360,0.0,-999.0,94,-99.99,,,0.01,weatherlink.com 1.10,2013-10-15 17:36:00,
2013-10-15 11:52:00,30.8,29.0,30.47,North,360,3.0,-999.0,94,-99.99,,,0.01,weatherlink.com 1.10,2013-10-15 17:52:00,
2013-10-15 12:06:00,30.4,29.0,30.48,North,360,0.0,-999.0,93,-99.99,,,0.02,weatherlink.com 1.10,2013-10-15 18:06:00,
2013-10-15 12:22:00,31.1,30.0,30.47,SSE,164,0.0,-999.0,94,-99.99,,,0.04,weatherlink.com 1.10,2013-10-15 18:22:00,
2013-10-15 12:37:00,32.9,31.0,30.47,SE,128,0.0,-999.0,94,-99.99,,,0.05,weatherlink.com 1.10,2013-10-15 18:37:00,
2013-10-15 12:52:00,34.5,33.0,30.47,North,360,3.0,-999.0,94,-99.99,,,0.07,weatherlink.com 1.10,2013-10-15 18:52:00,
2013-10-15 13:07:00,33.9,31.0,30.47,North,360,3.0,-999.0,89,-99.99,,,0.08,weatherlink.com 1.10,2013-10-15 19:07:00,
2013-10-15 13:22:00,33.0,30.0,30.46,North,360,2.0,-999.0,90,-99.99,,,0.08,weatherlink.com 1.10,2013-10-15 19:22:00,
2013-10-15 13:37:00,32.6,30.0,30.46,North,360,2.0,-999.0,90,-99.99,,,0.08,weatherlink.com 1.10,2013-10-15 19:37:00,
2013-10-15 13:52:00,32.6,30.0,30.45,North,360,2.0,-999.0,90,-99.99,,,0.09,weatherlink.com 1.10,2013-10-15 19:52:00,
2013-10-15 14:07:00,32.7,30.0,30.45,North,360,0.0,-999.0,90,-99.99,,,0.09,weatherlink.com 1.10,2013-10-15 20:07:00,
2013-10-15 14:22:00,33.3,31.0,30.45,North,360,0.0,-999.0,91,-99.99,,,0.10,weatherlink.com 1.10,2013-10-15 20:22:00,
2013-10-15 14:52:00,33.7,30.0,30.45,North,360,0.0,-999.0,87,-99.99,,,0.10,weatherlink.com 1.10,2013-10-15 20:52:00,
2013-10-15 15:07:00,33.3,30.0,30.44,North,360,1.0,-999.0,87,-99.99,,,0.10,weatherlink.com 1.10,2013-10-15 21:07:00,
2013-10-15 15:22:00,33.4,30.0,30.44,North,360,1.0,-999.0,87,-99.99,,,0.10,weatherlink.com 1.10,2013-10-15 21:22:00,
2013-10-15 15:37:00,33.3,30.0,30.44,North,360,3.0,-999.0,87,-99.99,,,0.11,weatherlink.com 1.10,2013-10-15 21:37:00,
2013-10-15 15:52:00,33.1,30.0,30.44,SSE,165,4.0,-999.0,87,-99.99,,,0.11,weatherlink.com 1.10,2013-10-15 21:52:00,
2013-10-15 16:07:00,32.6,30.0,30.45,SE,128,0.0,-999.0,88,-99.99,,,0.11,weatherlink.com 1.10,2013-10-15 22:07:00,
2013-10-15 16:22:00,32.0,29.0,30.45,North,360,2.0,-999.0,89,-99.99,,,0.11,weatherlink.com 1.10,2013-10-15 22:22:00,
2013-10-15 16:37:00,31.9,29.0,30.45,SSE,161,0.0,-999.0,90,-99.99,,,0.11,weatherlink.com 1.10,2013-10-15 22:37:00,
2013-10-15 16:52:00,31.9,29.0,30.45,SSE,162,0.0,-999.0,90,-99.99,,,0.11,weatherlink.com 1.10,2013-10-15 22:52:00,
2013-10-15 17:07:00,32.0,29.0,30.45,North,360,0.0,-999.0,90,-99.99,,,0.11,weatherlink.com 1.10,2013-10-15 23:07:00,
2013-10-15 17:22:00,31.9,29.0,30.45,ESE,119,0.0,-999.0,90,-99.99,,,0.11,weatherlink.com 1.10,2013-10-15 23:22:00,
2013-10-15 17:37:00,32.0,29.0,30.45,ESE,119,0.0,-999.0,89,-99.99,,,0.12,weatherlink.com 1.10,2013-10-15 23:37:00,
2013-10-15 17:52:00,32.0,29.0,30.45,North,360,0.0,-999.0,88,-99.99,,,0.12,weatherlink.com 1.10,2013-10-15 23:52:00,
2013-10-15 18:22:00,31.7,29.0,30.45,North,360,0.0,-999.0,88,-99.99,,,0.12,weatherlink.com 1.10,2013-10-16 00:22:00,
2013-10-15 18:37:00,31.4,28.0,30.46,North,360,0.0,-999.0,88,-99.99,,,0.12,weatherlink.com 1.10,2013-10-16 00:37:00,
2013-10-15 18:52:00,31.0,28.0,30.46,North,360,0.0,-999.0,89,-99.99,,,0.12,weatherlink.com 1.10,2013-10-16 00:52:00,
2013-10-15 19:07:00,30.7,28.0,30.46,North,360,0.0,-999.0,89,-99.99,,,0.12,weatherlink.com 1.10,2013-10-16 01:07:00,
2013-10-15 19:22:00,30.4,28.0,30.47,North,360,0.0,-999.0,89,-99.99,,,0.12,weatherlink.com 1.10,2013-10-16 01:22:00,
2013-10-15 19:37:00,30.1,28.0,30.46,North,360,0.0,-999.0,90,-99.99,,,0.12,weatherlink.com 1.10,2013-10-16 01:37:00,
2013-10-15 19:52:00,29.9,27.0,30.47,North,360,0.0,-999.0,90,-99.99,,,0.12,weatherlink.com 1.10,2013-10-16 01:52:00,
2013-10-15 20:07:00,29.7,27.0,30.47,NNE,27,0.0,-999.0,90,-99.99,,,0.12,weatherlink.com 1.10,2013-10-16 02:07:00,
2013-10-15 20:22:00,28.3,25.0,30.47,East,96,2.0,-999.0,88,-99.99,,,0.12,weatherlink.com 1.10,2013-10-16 02:22:00,
2013-10-15 20:37:00,27.2,24.0,30.48,East,94,1.0,-999.0,88,-99.99,,,0.12,weatherlink.com 1.10,2013-10-16 02:37:00,
2013-10-15 20:52:00,26.4,24.0,30.48,East,94,0.0,-999.0,89,-99.99,,,0.12,weatherlink.com 1.10,2013-10-16 02:52:00,
2013-10-15 21:07:00,26.2,24.0,30.48,ESE,113,0.0,-999.0,90,-99.99,,,0.12,weatherlink.com 1.10,2013-10-16 03:07:00,
2013-10-15 21:22:00,26.5,24.0,30.49,ESE,113,0.0,-999.0,90,-99.99,,,0.12,weatherlink.com 1.10,2013-10-16 03:22:00,
2013-10-15 21:37:00,25.9,23.0,30.48,ESE,113,0.0,-999.0,90,-99.99,,,0.12,weatherlink.com 1.10,2013-10-16 03:37:00,
2013-10-15 21:52:00,25.6,23.0,30.48,ESE,113,0.0,-999.0,90,-99.99,,,0.12,weatherlink.com 1.10,2013-10-16 03:52:00,
2013-10-15 22:07:00,25.7,24.0,30.48,ESE,109,0.0,-999.0,91,-99.99,,,0.12,weatherlink.com 1.10,2013-10-16 04:07:00,
2013-10-15 22:22:00,26.0,24.0,30.48,ESE,109,0.0,-999.0,91,-99.99,,,0.12,weatherlink.com 1.10,2013-10-16 04:22:00,
2013-10-15 22:37:00,26.9,25.0,30.48,ESE,109,0.0,-999.0,92,-99.99,,,0.12,weatherlink.com 1.10,2013-10-16 04:37:00,
2013-10-15 22:52:00,27.4,25.0,30.48,ESE,109,0.0,-999.0,92,-99.99,,,0.12,weatherlink.com 1.10,2013-10-16 04:52:00,
2013-10-15 23:07:00,27.8,26.0,30.48,ESE,109,0.0,-999.0,92,-99.99,,,0.12,weatherlink.com 1.10,2013-10-16 05:07:00,
2013-10-15 23:22:00,28.0,26.0,30.48,ESE,109,0.0,-999.0,91,-99.99,,,0.12,weatherlink.com 1.10,2013-10-16 05:22:00,
2013-10-15 23:37:00,28.1,26.0,30.48,ESE,109,0.0,-999.0,91,-99.99,,,0.12,weatherlink.com 1.10,2013-10-16 05:37:00,
2013-10-15 23:52:00,28.1,26.0,30.48,ESE,110,0.0,-999.0,91,-99.99,,,0.12,weatherlink.com 1.10,2013-10-16 05:52:00,